CAPE
8 0 0 1 23 19 20 23 6 1 1 0 0 0 0 0 0 0 0 0 0 0 0 0 0 0 0 0 0 0 1 6 27 32 70 80 56 43
4 2 19 19 30 51 67 61 37 28 10 3 0 0 0 0 0 0 0 0 0 0 0 0 0 0 0 0 0 0 0 0 0 0 21 57 53 48
8 12 19 31 46 54 45 34 6 2 6 0 0 0 0 0 0 0 0 0 0 0 0 0 0 0 0 0 0 0 0 0 0 0 5 6 1 2
12 17 20 27 31 38 19 12 6 1 3 6 0 0 0 0 0 0 0 0 0 0 0 0 0 0 0 0 0 0 0 0 0 1 0 0 2 2
5 10 3 6 4 2 0 2 1 0 0 2 0 1 0 0 0 0 0 0 0 0 0 0 0 0 0 0 0 0 0 0 0 0 2 2 1 2
0 0 1 2 4 1 1 0 0 0 0 0 0 0 0 0 0 0 0 0 0 0 0 0 0 0 0 0 0 0 1 0 0 0 0 0 0 0
0 0 0 0 0 0 0 0 0 0 0 0 1 1 2 0 0 0 0 0 0 0 0 0 0 0 0 0 1 0 0 0 1 1 0 1 0 0
0 0 0 0 0 0 0 0 0 0 0 0 0 0 0 0 0 1 1 0 2 0 0 0 2 1 1 2 1 0 2 3 3 4 4 3 2 1
0 0 0 0 0 0 0 0 0 0 0 0 0 0 0 0 3 5 0 0 0 1 1 0 1 1 2 2 2 2 2 3 3 2 2 2 1 1
0 0 0 0 0 0 0 0 0 0 0 0 2 0 1 3 1 1 0 1 6 4 1 1 1 1 1 2 2 3 4 2 2 2 2 3 4 2
0 0 0 0 0 0 0 0 0 6 9 12 3 3 1 0 0 1 0 0 1 3 0 1 1 1 0 0 0 1 1 0 1 0 0 0 1 1
8 8 5 9 8 6 2 1 2 16 5 1 1 0 1 5 4 1 0 0 0 0 0 1 0 0 0 0 0 0 0 0 0 0 0 0 0 0
6 4 2 3 7 5 2 4 3 1 1 2 2 2 2 0 2 1 1 0 0 0 1 0 0 0 0 0 0 0 0 0 0 0 0 0 0 0
1 2 3 4 4 3 2 2 1 0 0 0 1 1 1 1 0 0 0 0 1 0 0 0 0 0 0 0 0 0 0 0 0 0 0 0 0 0
2 2 3 4 4 2 4 2 0 1 1 1 1 0 0 0 0 0 0 1 0 0 0 0 0 0 0 0 0 0 0 0 0 0 0 0 0 0
1 0 1 0 1 1 0 0 0 0 0 0 0 0 0 0 0 0 0 0 0 0 0 0 0 0 0 0 0 0 0 0 0 0 0 0 0 0
0 0 0 0 0 0 0 0 0 0 0 0 0 0 0 0 0 0 0 0 0 0 0 0 0 0 0 0 0 0 0 0 0 0 0 0 0 0
0 0 0 0 0 0 0 0 0 0 0 0 0 0 0 0 0 0 0 0 0 0 0 0 0 0 0 0 0 0 0 0 0 0 0 0 0 0
0 0 0 0 0 0 0 0 0 0 0 0 0 0 0 0 0 0 0 0 0 0 0 0 0 0 0 0 0 0 0 0 0 0 0 0 0 0
0 0 0 0 0 0 0 0 0 0 0 0 0 0 0 0 0 0 0 0 0 0 0 0 0 0 0 0 0 0 0 0 0 0 0 0 0 0
0 0 0 0 0 0 0 0 0 0 0 0 0 0 0 0 0 0 0 0 0 0 0 0 0 0 0 0 0 0 0 0 0 0 0 0 0 0
0 0 0 0 0 0 0 0 0 0 0 0 0 0 0 0 0 0 0 0 0 0 0 0 0 0 0 0 0 0 0 0 0 0 0 0 0 0
0 0 0 0 0 0 0 0 0 0 0 0 0 0 0 0 0 0 0 0 0 0 0 0 0 0 0 0 0 0 0 0 0 0 0 0 0 0
CIN
-60 0 -28 -37 -77 -86 -72 -58 -32 -18 -4 0 0 0 0 0 0 0 0 0 0 0 0 0 0 0 0 0 0 0 -100 -76 -41 -11 -0 0 0 0
-64 -57 -60 -66 -87 -87 -78 -70 -47 -30 -15 -41 0 0 0 0 0 0 0 0 0 0 0 0 0 0 0 0 0 0 0 0 0 0 -3 -1 0 0
-64 -62 -53 -64 -69 -82 -68 -61 -46 -35 -38 -5 0 0 0 0 0 0 0 0 0 0 0 0 0 0 0 0 0 0 0 0 0 0 -0 0 0 0
-46 -66 -66 -71 -65 -57 -69 -70 -65 -77 -65 -51 0 0 0 0 0 0 0 0 0 0 0 0 0 0 0 0 0 0 0 0 0 0 0 0 0 0
-71 -78 -79 -93 -86 -88 -89 -115 -82 0 -79 -64 -47 -87 0 0 0 0 0 0 0 0 0 0 0 0 0 0 0 0 0 0 0 0 0 0 0 0
-2 -43 -77 -82 -87 -84 -97 -56 0 0 0 0 -0 0 0 0 0 0 0 0 0 0 0 0 0 0 0 0 0 0 0 0 0 0 0 0 0 0
0 0 0 0 0 0 0 0 0 0 0 -0 -0 -1 -0 -1 -2 -1 0 0 0 0 0 0 0 0 0 0 0 0 0 0 0 0 0 0 0 0
0 0 0 0 0 0 0 0 0 0 0 -0 0 0 0 0 -2 -14 0 0 -0 0 0 0 0 0 0 0 0 0 0 0 0 0 0 0 0 0
0 -0 -0 0 0 0 0 0 0 0 0 0 0 -0 -0 0 -12 -8 -1 0 0 0 0 0 0 0 0 0 0 0 0 0 0 0 0 0 0 0
0 0 -4 -5 0 0 0 0 0 0 0 0 0 0 0 0 0 0 0 0 0 0 0 0 0 0 0 0 0 0 0 0 0 0 0 0 -0 -2
0 0 0 0 -0 0 0 0 0 0 0 0 0 0 0 0 0 0 0 0 0 0 0 0 0 0 0 0 0 0 0 0 0 0 0 -1 -1 -1
0 0 0 0 0 0 0 0 0 0 0 0 0 0 0 0 0 0 0 0 0 0 0 0 0 0 0 0 0 0 0 0 0 0 0 0 0 0
0 0 0 0 0 0 0 0 0 0 0 0 0 0 0 0 0 0 0 0 0 0 0 0 0 0 0 0 0 0 0 0 0 0 0 0 0 0
0 0 0 0 0 0 0 0 0 0 0 0 0 0 0 0 0 0 0 0 0 0 0 0 0 0 0 0 0 0 0 0 0 0 0 0 0 0
0 0 0 0 0 0 0 0 0 0 0 0 0 0 0 0 0 0 0 0 0 0 0 0 0 0 0 0 0 0 0 0 0 0 0 0 0 0
0 0 0 0 0 0 0 0 0 0 0 0 0 0 0 0 0 0 0 0 0 0 0 0 0 0 0 0 0 0 0 0 0 0 0 0 0 0
0 0 0 0 0 0 0 0 0 0 0 0 0 0 0 0 0 0 0 0 0 0 0 0 0 0 0 0 0 0 0 0 0 0 0 0 0 0
0 0 0 0 0 0 0 0 0 0 0 0 0 0 0 0 0 0 0 0 0 0 0 0 0 0 0 0 0 0 0 0 0 0 0 0 0 0
0 0 0 0 0 0 0 0 0 0 0 0 0 0 0 0 0 0 0 0 0 0 0 0 0 0 0 0 0 0 0 0 0 0 0 0 0 0
0 0 0 0 0 0 0 0 0 0 0 0 0 0 0 0 0 0 0 0 0 0 0 0 0 0 0 0 0 0 0 0 0 0 0 0 0 0
0 0 0 0 0 0 0 0 0 0 0 0 0 0 0 0 0 0 0 0 0 0 0 0 0 0 0 0 0 0 0 0 0 0 0 0 0 0
0 0 0 0 0 0 0 0 0 0 0 0 0 0 0 0 0 0 0 0 0 0 0 0 0 0 0 0 0 0 0 0 0 0 0 0 0 -0
0 0 0 0 0 0 0 0 0 0 0 0 0 0 0 0 0 0 0 0 0 0 0 0 0 0 0 0 0 0 0 0 0 0 0 0 0 0
Wind_Speed
34 29 22 24 23 24 26 27 30 32 38 32 32 26 26 27 24 29 30 29 25 25 27 28 28 28 29 30 31 29 29 30 32 32 33 34 33 32
19 20 21 25 25 26 27 27 28 32 44 40 40 39 35 34 31 30 32 32 32 30 29 30 32 34 34 35 33 31 31 33 33 33 34 34 35 34
20 20 22 20 24 27 29 30 29 33 37 39 46 42 38 33 34 36 37 37 37 35 32 32 34 35 34 33 34 33 33 33 32 33 33 30 28 27
20 21 22 25 26 25 27 29 32 32 32 35 37 40 39 38 38 38 40 39 39 37 34 35 35 35 34 34 35 38 37 36 33 31 27 27 26 26
22 23 24 27 26 27 29 31 33 34 35 35 35 37 39 38 38 39 39 40 39 36 37 36 34 33 34 35 36 36 38 36 31 25 25 26 26 27
24 24 25 26 26 28 30 31 32 35 36 37 38 38 39 39 40 41 44 40 41 39 38 36 36 35 35 36 38 37 34 29 26 24 25 25 28 27
27 27 28 29 29 30 33 33 34 36 37 38 39 39 39 39 38 40 41 42 41 39 40 39 37 38 38 36 34 29 27 25 25 25 26 27 27 28
28 30 32 33 32 33 34 34 35 36 37 38 40 40 39 39 39 38 38 40 43 35 37 40 36 39 36 32 30 28 28 26 26 25 25 26 26 26
27 29 31 31 31 33 33 33 35 36 38 39 40 39 42 40 38 38 38 38 41 40 37 43 39 35 34 31 28 28 25 27 24 24 25 24 25 26
29 31 34 35 34 34 35 35 35 38 41 42 44 49 49 48 43 42 42 40 39 39 38 42 35 36 32 28 26 25 25 25 28 26 27 27 26 27
32 38 39 40 40 41 37 37 37 36 34 36 35 37 38 40 42 42 45 43 44 39 38 35 34 32 31 29 25 26 25 25 28 26 26 27 27 27
33 34 39 40 42 44 41 41 37 35 34 34 32 30 32 33 34 35 36 39 36 37 37 32 31 31 33 31 26 24 24 25 26 27 27 28 30 32
32 35 34 35 35 35 35 34 33 26 28 30 30 28 29 29 29 31 29 30 32 31 31 29 30 31 29 29 26 23 24 27 27 28 29 30 32 34
28 28 30 27 30 27 26 25 24 23 23 26 26 27 31 28 28 26 25 25 24 24 25 27 28 28 29 29 29 25 26 29 29 32 33 33 35 36
23 24 26 25 26 28 25 25 24 23 22 24 25 28 25 27 23 26 24 24 24 25 26 25 25 26 28 29 31 33 35 32 34 33 36 38 38 37
23 23 24 25 26 23 23 23 23 23 22 24 26 25 25 27 28 26 30 26 27 28 26 27 27 28 30 31 33 35 34 36 37 37 39 39 39 38
22 23 24 24 24 25 24 24 23 25 27 26 26 27 27 28 29 29 29 29 28 30 31 32 31 30 31 32 34 34 37 38 40 42 44 45 42 41
23 23 24 24 24 25 26 25 26 26 27 27 28 28 29 29 30 30 30 31 31 32 32 33 34 33 33 31 31 37 38 42 42 42 43 47 47 42
24 25 25 25 26 26 27 27 28 27 27 27 28 29 29 30 31 31 32 32 32 32 32 32 34 35 39 41 35 33 43 42 43 45 44 45 49 47
25 26 26 26 27 27 27 27 27 27 28 28 29 30 30 30 32 32 32 32 32 33 33 33 35 37 40 42 42 40 37 42 43 46 47 46 45 46
25 26 26 26 27 27 27 27 27 27 28 28 29 30 31 31 31 32 32 33 33 33 36 36 36 37 36 37 41 42 40 40 42 45 47 49 50 50
26 26 26 26 27 27 27 26 27 28 29 30 31 31 31 31 32 32 33 34 35 35 36 35 35 36 36 40 42 44 44 43 42 42 42 43 46 47
26 26 26 27 27 27 27 27 28 29 30 31 32 32 32 32 32 31 32 33 35 35 35 36 36 35 38 39 41 43 45 45 45 45 43 40 39 38
Wind_Direction
260 260 254 263 266 267 271 275 281 283 282 287 290 290 289 286 281 282 285 285 280 274 267 268 269 278 283 281 284 280 276 277 278 275 268 264 267 269
226 239 251 264 267 269 272 277 281 284 285 284 283 290 288 287 285 283 286 285 285 281 280 275 275 281 286 287 289 286 284 286 284 280 275 269 267 268
249 245 230 248 266 270 272 274 274 284 287 290 281 285 289 287 286 286 287 288 289 286 280 280 283 283 283 283 285 290 290 290 283 283 279 275 274 268
238 250 243 266 264 263 270 269 275 279 281 285 286 286 288 288 287 287 287 287 287 286 283 285 285 285 284 283 284 289 293 294 290 285 276 274 271 272
257 258 258 269 263 268 272 275 278 280 282 283 283 287 288 290 290 290 290 290 289 285 286 285 281 282 282 284 288 290 292 294 291 284 281 281 278 278
265 263 265 265 263 269 274 275 278 281 284 283 284 285 288 290 290 292 293 293 292 292 290 287 289 287 286 289 291 292 292 292 291 289 287 285 286 286
270 269 269 269 267 267 275 275 279 280 281 283 284 286 287 289 288 291 291 294 292 292 292 292 290 291 291 292 293 290 290 290 290 289 287 285 288 288
270 273 274 274 268 266 268 265 272 278 278 280 283 283 284 286 289 288 289 291 292 293 291 292 292 292 293 292 291 289 287 290 292 289 291 291 290 291
272 274 276 276 273 276 274 267 266 265 266 275 278 280 286 286 285 286 287 288 289 294 293 292 298 292 297 296 294 291 289 290 294 293 292 292 293 293
273 276 278 277 275 275 276 276 275 278 279 277 278 285 287 289 288 288 289 292 296 299 298 293 297 296 299 298 297 295 293 296 295 295 294 294 293 293
279 287 287 285 285 282 274 275 279 283 292 292 288 294 296 296 295 290 288 287 290 294 301 294 297 299 300 301 301 301 300 301 301 305 305 304 303 303
294 294 297 294 290 288 282 281 278 284 288 294 294 294 302 306 309 305 299 294 294 297 303 295 303 300 300 298 301 307 303 305 306 309 310 308 305 305
299 303 307 305 305 302 297 293 281 286 293 296 301 299 312 308 314 314 316 309 301 306 310 302 306 305 303 302 305 308 308 307 311 309 310 310 307 306
306 310 311 320 321 316 311 315 303 306 302 305 301 315 312 307 321 321 326 327 325 322 327 319 310 310 307 302 304 307 309 309 310 309 308 309 310 308
325 327 320 328 324 326 327 325 320 311 311 310 311 320 319 321 327 326 324 328 333 333 333 331 324 318 312 307 306 306 309 310 311 311 310 309 309 310
339 337 332 335 340 334 338 336 332 332 334 323 325 320 329 323 327 334 318 321 321 323 332 330 326 320 313 310 309 308 312 309 311 312 311 310 310 310
347 343 338 335 332 331 338 338 336 333 330 332 328 328 329 325 329 328 326 327 323 321 320 320 324 322 316 314 311 315 315 313 312 311 310 308 309 308
345 341 339 339 336 332 331 336 337 336 334 332 331 330 328 328 325 325 326 324 321 320 321 322 322 321 319 318 322 316 315 314 314 313 312 309 308 310
339 337 335 335 336 332 333 334 335 335 332 331 330 329 327 326 325 325 325 324 323 323 323 325 324 321 315 313 316 321 317 316 315 314 313 311 309 310
339 336 335 334 333 333 333 332 332 331 331 331 330 329 328 328 326 325 326 325 325 324 323 325 324 322 318 315 314 319 322 318 317 315 315 314 312 311
341 340 338 336 334 333 334 335 334 334 334 334 332 332 331 330 328 327 326 326 325 324 321 322 324 325 323 323 319 319 322 323 321 318 316 314 313 312
341 340 339 338 336 336 336 336 335 334 333 332 331 331 330 328 326 326 326 323 323 323 323 326 327 327 326 323 320 321 322 324 324 322 320 316 314 312
339 338 338 337 336 336 334 333 333 332 331 331 330 329 328 326 327 327 327 326 324 324 325 325 326 328 326 325 324 324 325 326 326 325 324 324 320 316